Location: Cabri�res
(43.7840°N, 5.4986°E)
Time: 02:31:27
(UTC+00:00)

SPOT 5 - Pass Details

Date: 09 April 2020
Orbit: 624 x 814 km, 98.3° (Epoch: 05 June)

Event Time Altitude Azimuth Distance (km) Brightness Sun altitude
Exits shadow 20:31:37 25° 47° (NE) 1,284 4.1 -23.1°
Drops below altitude 10° 20:34:22 10° 10° (N) 2,006 5.5 -23.5°
Sets 20:36:49 0° 358° (N) 2,923 6.6 -23.8°
